Location: Silverdale
(47.6506°N, 122.6941°W)
Time: 09:43:15
(UTC+00:00)

Transit 2A - Visible Passes

Search period start: 06 October 2022 00:00
Search period end: 16 October 2022 00:00
Orbit: 601 x 956 km, 66.7° (Epoch: 05 October)

Date Brightness Start Highest point End Pass type
(mag) Time Alt. Az. Time Alt. Az. Time Alt. Az.
06 Oct 8.4 12:33:30 10° N 12:35:38 13° NNE 12:37:51 10° ENE visible
07 Oct 8.6 11:59:56 10° NNE 12:00:53 11° NNE 12:01:51 10° NE visible
07 Oct 7.3 13:41:00 10° NNW 13:45:19 37° NE 13:50:00 10° ESE visible
08 Oct 7.7 13:06:47 10° NNW 13:10:48 28° NE 13:15:05 10° ESE visible
09 Oct 8.1 12:32:37 10° NNW 12:36:13 22° NE 12:40:00 10° E visible
10 Oct 8.3 11:58:31 10° N 12:01:35 17° NE 12:04:46 10° ENE visible
10 Oct 6.1 13:40:42 10° NNW 13:45:25 76° NE 13:50:37 10° SE visible
11 Oct 8.5 11:24:32 10° N 11:26:53 14° NNE 11:29:18 10° ENE visible
11 Oct 6.6 13:06:23 10° NNW 13:11:00 54° NE 13:16:03 10° SE visible
12 Oct 8.6 10:50:48 10° N 10:52:08 11° NNE 10:53:29 10° NE visible
12 Oct 7.1 12:32:07 10° NNW 12:36:31 39° NE 12:41:19 10° ESE visible
13 Oct 7.6 11:57:53 10° NNW 12:02:00 29° NE 12:06:25 10° ESE visible
13 Oct 6.1 13:40:41 10° NW 13:45:20 51° WSW 13:50:25 10° SSE visible
14 Oct 8.0 11:24:53 15° N 11:27:25 23° NE 11:31:22 10° E visible
14 Oct 5.8 13:06:14 10° NW 13:10:59 74° WSW 13:16:15 10° SSE visible
15 Oct 8.2 10:52:07 17° NNE 10:52:48 18° NE 10:56:09 10° ENE visible
15 Oct 5.9 12:32:38 15° NNW 12:36:37 80° NE 12:41:52 10° SE visible
